Temp
76 76 77 79 81 82 82 83 83 83 83 83 83 84 85 84 83 83 83 81 81 81 81 81 81 82 81 82 83 83 84 84 84 84 84 84 85 85 84 86 85 84 86 86 86 85 86 86 86 86 86 86 86 86 86 86 86 87 86 86 86 86 86
75 76 76 78 80 81 82 83 83 84 84 84 84 83 85 84 83 83 82 82 82 81 81 81 81 82 82 82 83 83 83 83 84 84 84 84 84 84 85 85 85 84 85 86 86 86 86 87 86 86 86 86 87 86 87 86 86 86 87 86 86 86 86
74 76 77 77 79 81 82 83 83 84 84 85 85 84 84 82 83 83 82 82 81 82 82 82 81 82 83 83 82 83 84 84 84 84 84 85 85 87 86 85 86 86 87 87 86 87 87 87 86 86 87 87 88 86 86 86 86 87 87 86 86 87 86
71 74 76 77 79 80 82 83 83 84 85 86 85 86 85 83 84 83 83 83 82 82 81 82 83 83 83 82 82 83 83 84 85 86 87 87 86 87 85 85 85 87 86 86 88 88 89 87 87 86 85 86 86 87 87 87 88 87 87 86 86 87 86
70 73 75 75 77 78 79 81 82 83 84 86 86 85 85 85 85 85 85 85 85 83 84 85 86 85 84 84 85 85 85 85 85 86 87 87 87 86 86 87 87 87 87 88 87 86 85 86 87 87 86 86 87 87 86 87 87 87 86 86 86 87 88
69 69 71 73 75 77 79 81 82 82 83 84 85 85 85 85 86 86 86 84 85 86 85 84 85 84 83 85 85 85 85 85 84 85 86 86 86 87 87 87 88 87 88 87 88 88 87 87 87 87 88 89 89 89 89 88 88 88 87 86 86 87 89
69 69 70 72 73 75 77 79 80 81 83 84 85 85 85 85 84 84 86 85 85 83 84 84 85 85 84 85 84 84 83 85 85 86 87 87 87 87 87 88 87 88 89 88 87 88 88 87 87 87 87 88 88 89 87 86 87 87 87 86 85 86 86
70 69 70 71 72 75 76 76 77 80 82 83 83 82 83 84 85 84 85 86 85 83 82 82 83 84 83 84 85 85 85 86 86 86 87 87 87 87 88 88 87 88 87 88 88 88 89 88 89 88 88 88 87 87 88 87 86 89 88 86 86 86 89
72 71 71 71 71 73 75 76 76 76 78 80 81 81 83 83 84 85 85 84 84 82 82 84 83 84 83 83 84 84 86 86 86 86 86 88 88 89 90 89 89 88 87 89 90 88 89 89 90 87 87 87 87 86 87 86 87 88 87 87 86 86 88
71 72 72 72 71 71 74 75 75 75 75 77 78 79 81 81 82 85 86 84 84 83 83 84 83 83 82 82 83 85 85 85 86 87 88 88 88 88 89 90 90 89 88 89 91 90 88 89 89 88 86 86 86 86 86 86 87 87 88 87 87 86 86
69 70 72 72 71 71 72 73 74 74 76 77 77 79 80 80 80 82 82 82 81 82 83 83 83 82 82 82 82 83 85 86 87 86 87 88 89 89 90 90 91 90 89 90 90 90 90 88 88 87 86 88 87 87 86 87 87 87 88 88 88 88 88
67 67 67 70 71 71 70 71 73 73 74 75 77 78 78 78 78 80 81 81 82 82 83 82 82 82 82 82 81 81 82 85 86 86 87 87 88 88 89 90 90 90 90 90 89 89 90 89 89 89 87 87 88 88 87 87 87 86 87 89 89 88 88
65 65 65 64 68 71 71 71 71 72 73 75 75 76 77 77 77 79 80 80 81 82 83 82 81 81 81 81 81 81 81 83 84 85 86 85 86 88 88 89 90 90 90 90 90 90 90 91 89 89 89 88 89 89 88 87 88 86 86 87 88 88 87
66 67 67 66 67 68 68 70 71 71 72 72 73 74 74 75 77 77 78 78 79 80 80 81 81 81 81 81 81 81 81 81 82 81 82 83 83 84 86 87 88 88 89 89 88 89 90 91 91 90 90 89 89 89 88 87 87 87 87 87 88 88 88
66 65 66 66 65 67 68 68 68 70 71 71 71 70 72 73 74 75 76 77 77 78 78 79 80 79 80 80 80 80 81 81 81 81 81 81 81 82 83 84 85 86 86 87 88 90 90 90 91 90 89 89 88 88 89 89 88 88 88 87 87 88 88
64 65 65 64 64 64 66 66 66 66 67 68 68 69 70 70 71 73 73 73 74 75 77 78 78 78 79 79 78 79 79 79 80 80 80 80 80 80 81 83 85 86 86 86 86 87 86 87 88 89 89 88 88 88 89 89 89 85 79 80 87 88 89
65 64 64 63 63 63 64 64 64 64 64 65 66 67 67 68 68 70 71 72 73 74 75 76 74 74 75 76 78 79 79 78 79 80 79 79 79 80 80 81 83 83 83 84 84 84 84 85 86 88 89 89 89 89 90 90 91 81 71 70 71 83 86
65 64 64 63 63 63 63 63 63 63 63 64 65 65 65 66 66 67 67 69 70 70 72 71 71 72 73 74 76 77 78 78 78 78 78 78 79 79 80 81 81 81 82 84 84 83 86 86 85 85 87 88 88 89 90 90 84 74 70 68 67 73 84
65 65 65 65 63 62 62 62 63 64 64 64 64 64 65 65 65 65 66 66 68 69 68 68 69 70 70 71 72 74 75 76 77 77 77 78 79 79 79 79 79 80 81 81 83 85 83 83 84 84 85 86 85 87 89 89 77 69 69 67 66 65 74
65 66 67 67 66 64 63 63 63 64 64 64 64 64 64 65 64 64 65 66 67 66 67 67 67 66 67 68 69 71 73 74 75 74 74 75 76 77 78 78 77 78 79 80 80 81 82 84 83 83 83 84 84 84 87 88 72 66 65 66 64 64 70
65 65 65 65 65 65 65 64 64 65 65 64 64 63 63 63 64 64 64 65 65 65 65 66 66 66 66 67 68 70 71 71 71 71 72 74 75 75 75 74 75 75 76 77 78 78 79 81 81 81 82 84 85 85 87 84 65 63 62 61 62 62 69
67 66 64 65 66 65 65 65 65 65 64 66 65 65 64 63 64 63 63 64 64 64 65 65 65 65 66 66 67 68 68 69 69 70 72 72 73 73 73 74 76 75 74 73 74 78 80 81 81 81 81 81 82 84 85 78 61 61 59 60 62 62 80
70 68 67 66 66 65 65 66 67 66 66 66 66 65 64 64 64 64 64 64 63 64 64 64 64 64 64 65 66 67 67 68 68 69 70 70 70 70 70 71 71 72 73 73 74 75 75 77 78 78 80 80 80 80 81 79 65 59 58 59 60 70 83
71 70 70 69 68 68 67 67 68 68 67 66 65 65 66 66 65 64 64 64 65 65 64 65 65 65 64 64 65 65 66 67 67 67 67 68 68 69 70 71 71 71 72 72 72 72 74 74 74 75 76 77 77 78 76 75 66 57 57 57 58 69 80
71 71 71 71 70 69 68 68 68 68 67 66 65 65 67 67 66 65 64 64 64 64 63 63 64 65 64 65 66 66 67 69 69 69 69 69 69 69 70 70 70 70 71 71 71 71 73 73 73 73 74 75 76 75 75 75 68 57 56 56 57 68 79
68 69 69 70 71 70 69 69 69 69 68 67 66 68 67 66 65 64 63 64 64 63 63 63 64 65 66 66 68 69 70 71 71 70 70 70 70 70 70 71 71 71 71 71 72 71 71 71 71 70 69 71 72 74 75 72 70 63 55 54 56 58 74
69 70 69 70 69 68 69 68 68 68 68 67 67 70 70 68 66 63 63 63 63 63 63 65 66 66 67 67 68 69 70 72 72 72 73 72 71 71 71 71 71 72 72 71 72 71 72 72 71 70 69 70 70 70 71 73 70 64 56 54 54 55 65
69 69 70 69 68 68 68 69 67 67 68 68 69 70 69 67 64 63 63 62 61 62 65 67 67 68 68 68 68 69 70 71 72 73 74 73 73 72 71 72 73 73 73 73 72 71 70 70 71 70 69 69 69 69 69 72 70 69 61 55 53 53 56
67 67 67 67 67 69 69 67 67 67 66 69 69 69 68 67 63 63 62 61 61 63 65 66 67 68 68 67 67 67 68 69 70 71 72 72 73 72 72 73 73 73 73 73 72 72 71 71 72 72 70 70 69 69 69 70 70 65 65 58 53 52 53
67 67 68 70 69 68 68 65 65 65 66 67 67 67 67 66 63 62 61 60 63 64 65 66 67 67 67 67 67 67 68 68 70 70 70 71 71 72 72 72 73 72 72 72 72 71 70 70 71 71 71 72 72 71 70 70 70 68 65 63 56 53 51
66 67 67 66 67 67 67 66 64 64 64 65 64 65 65 66 63 62 60 61 63 63 64 64 65 66 66 66 67 67 68 69 69 69 69 70 71 71 72 72 72 71 71 71 71 71 70 69 70 70 69 69 69 69 70 71 72 70 68 65 63 55 53
65 67 67 66 65 65 65 65 64 63 62 62 64 64 64 64 64 61 60 62 63 64 64 64 64 64 64 66 67 67 69 70 70 68 68 69 70 70 71 71 72 72 72 71 71 70 69 68 69 69 69 69 69 70 71 70 71 70 70 69 68 65 58
64 65 65 64 64 64 64 64 63 62 62 61 63 64 64 63 63 62 62 62 63 64 64 64 63 63 63 64 66 67 68 68 69 69 68 70 71 72 72 72 73 72 71 72 71 69 69 69 68 68 68 68 68 69 70 71 71 71 70 69 70 70 68
63 64 64 64 64 64 64 64 63 62 61 60 61 62 63 62 62 62 63 64 64 64 63 63 63 64 64 65 66 67 67 67 66 67 69 69 70 71 72 72 72 72 70 71 70 69 69 69 68 67 68 67 70 70 71 71 71 69 67 66 65 67 69
63 64 63 63 63 64 63 63 63 62 61 60 61 61 61 61 62 62 62 62 63 62 62 62 62 63 64 65 65 65 66 67 67 67 68 68 69 69 68 68 70 69 70 70 69 69 70 70 68 68 69 70 68 68 69 70 68 65 55 56 50 54 61
63 63 63 64 64 64 63 63 62 61 61 60 61 61 61 60 61 61 63 62 62 63 63 62 63 63 64 65 65 66 67 67 68 67 67 69 68 69 69 62 54 60 68 68 61 52 47 52 67 66 68 68 68 68 67 68 66 51 44 42 42 42 43
62 62 62 63 62 62 62 62 62 61 60 60 61 61 60 60 61 61 61 61 62 62 63 63 63 63 64 65 64 64 65 66 66 66 66 67 67 67 67 70 64 45 45 53 54 50 43 42 42 45 49 60 69 62 51 53 47 43 42 42 42 41 41
64 64 63 63 63 62 62 61 61 61 60 60 61 61 61 61 61 60 62 61 61 62 62 63 63 62 62 63 63 63 63 63 64 65 65 65 66 66 67 67 67 68 52 46 49 46 43 44 43 43 45 46 50 62 66 53 46 42 42 42 41 41 41
MSLP
1017.24 1017.40 1017.24 1017.00 1016.92 1016.88 1016.96 1017.00 1017.08 1017.36 1017.52 1017.72 1017.96 1018.12 1018.32 1018.56 1018.84 1019.12 1019.44 1019.72 1020.00 1020.28 1020.36 1020.48 1020.64 1020.72 1020.92 1020.96 1021.04 1021.12 1021.20 1021.40 1021.56 1021.80 1021.96 1022.00 1021.96 1022.08 1022.28 1022.24 1022.40 1022.52 1022.44 1022.64 1022.64 1022.76 1022.68 1022.64 1022.80 1022.84 1022.88 1022.96 1023.08 1023.12 1023.24 1023.28 1023.40 1023.40 1023.48 1023.56 1023.68 1023.88 1023.96
1017.32 1017.28 1017.24 1017.04 1016.96 1016.84 1016.72 1016.68 1016.88 1017.04 1017.24 1017.44 1017.72 1017.96 1018.08 1018.40 1018.68 1019.00 1019.24 1019.44 1019.68 1019.96 1020.16 1020.32 1020.52 1020.60 1020.68 1020.76 1020.80 1020.96 1021.20 1021.32 1021.44 1021.56 1021.72 1021.92 1021.96 1021.96 1021.96 1022.12 1022.24 1022.36 1022.36 1022.28 1022.28 1022.36 1022.48 1022.56 1022.64 1022.84 1022.92 1022.96 1023.00 1023.04 1023.12 1023.20 1023.32 1023.36 1023.44 1023.52 1023.72 1023.84 1023.88
1017.32 1017.20 1017.20 1017.08 1016.96 1016.76 1016.64 1016.68 1016.80 1016.80 1017.00 1017.20 1017.44 1017.80 1017.96 1018.12 1018.24 1018.64 1019.04 1019.40 1019.68 1019.84 1019.96 1020.16 1020.28 1020.40 1020.48 1020.64 1020.80 1020.92 1021.00 1021.16 1021.40 1021.56 1021.76 1021.80 1021.88 1021.80 1021.84 1021.96 1022.08 1022.12 1022.08 1022.08 1022.16 1022.24 1022.20 1022.44 1022.52 1022.64 1022.76 1022.92 1022.88 1023.00 1023.08 1023.20 1023.24 1023.32 1023.40 1023.48 1023.64 1023.76 1023.92
1017.64 1017.44 1017.16 1016.92 1016.76 1016.60 1016.44 1016.44 1016.60 1016.68 1016.68 1016.84 1017.04 1017.20 1017.52 1017.88 1017.96 1018.32 1018.68 1019.04 1019.48 1019.72 1020.04 1020.00 1020.08 1020.24 1020.36 1020.64 1020.80 1020.84 1020.92 1021.00 1021.04 1021.20 1021.28 1021.32 1021.56 1021.64 1021.88 1021.96 1022.04 1021.96 1022.16 1022.16 1022.00 1022.04 1022.04 1022.24 1022.44 1022.52 1022.68 1022.84 1022.92 1022.88 1022.96 1023.08 1023.08 1023.20 1023.28 1023.44 1023.60 1023.60 1023.76
1017.44 1017.36 1017.36 1017.28 1017.12 1017.00 1016.92 1016.76 1016.68 1016.68 1016.68 1016.52 1016.72 1016.96 1017.24 1017.52 1017.76 1018.08 1018.44 1018.68 1018.96 1019.32 1019.36 1019.48 1019.60 1019.84 1020.04 1020.20 1020.44 1020.52 1020.60 1020.72 1020.92 1020.92 1021.00 1021.04 1021.20 1021.44 1021.72 1021.84 1021.88 1021.92 1021.92 1021.88 1021.96 1022.16 1022.24 1022.36 1022.36 1022.48 1022.60 1022.72 1022.84 1022.84 1023.00 1023.00 1023.12 1023.16 1023.28 1023.36 1023.60 1023.56 1023.60
1017.48 1017.52 1017.44 1017.36 1017.28 1017.00 1016.88 1016.76 1016.64 1016.64 1016.68 1016.72 1016.76 1017.00 1017.20 1017.44 1017.64 1017.96 1018.16 1018.56 1018.84 1018.96 1019.20 1019.40 1019.56 1019.68 1020.00 1020.00 1020.12 1020.28 1020.36 1020.48 1020.60 1020.76 1020.92 1021.00 1021.20 1021.40 1021.52 1021.60 1021.64 1021.72 1021.84 1021.88 1021.76 1021.92 1022.04 1022.20 1022.24 1022.32 1022.48 1022.44 1022.56 1022.68 1022.76 1022.92 1022.96 1023.00 1023.20 1023.36 1023.52 1023.48 1023.48
1017.48 1017.44 1017.36 1017.28 1017.28 1017.20 1017.00 1016.84 1016.72 1016.64 1016.56 1016.52 1016.52 1016.72 1017.00 1017.32 1017.64 1017.80 1017.92 1018.32 1018.52 1019.00 1019.16 1019.36 1019.36 1019.48 1019.76 1019.84 1020.04 1020.24 1020.48 1020.48 1020.56 1020.72 1020.72 1020.88 1021.00 1021.16 1021.24 1021.28 1021.40 1021.48 1021.44 1021.56 1021.80 1021.76 1021.96 1022.12 1022.16 1022.24 1022.32 1022.40 1022.52 1022.60 1022.72 1022.92 1023.00 1023.00 1023.16 1023.40 1023.60 1023.56 1023.56
1017.16 1017.36 1017.28 1017.20 1017.24 1017.08 1017.04 1017.00 1016.84 1016.64 1016.60 1016.64 1016.84 1016.96 1017.16 1017.16 1017.44 1017.84 1018.00 1018.04 1018.32 1018.68 1018.96 1019.16 1019.28 1019.36 1019.52 1019.72 1019.84 1020.12 1020.32 1020.36 1020.36 1020.44 1020.56 1020.76 1020.88 1021.04 1021.08 1021.16 1021.32 1021.36 1021.48 1021.72 1021.64 1021.64 1021.80 1021.92 1021.88 1022.04 1022.16 1022.32 1022.48 1022.56 1022.64 1022.76 1022.96 1022.88 1022.96 1023.28 1023.44 1023.48 1023.28
1016.92 1017.04 1017.20 1017.24 1017.28 1017.16 1017.00 1016.96 1016.96 1016.92 1016.76 1016.84 1016.88 1016.96 1017.00 1017.20 1017.28 1017.44 1017.72 1017.96 1018.12 1018.48 1018.68 1018.64 1018.92 1019.04 1019.28 1019.60 1019.80 1019.96 1020.00 1020.12 1020.32 1020.40 1020.52 1020.64 1020.68 1020.80 1020.76 1020.92 1021.04 1021.12 1021.48 1021.52 1021.44 1021.48 1021.56 1021.68 1021.72 1021.92 1022.04 1022.24 1022.36 1022.48 1022.56 1022.68 1022.76 1022.72 1022.88 1023.08 1023.24 1023.36 1023.24
1017.04 1017.08 1017.12 1017.16 1017.28 1017.24 1017.04 1016.96 1017.00 1017.12 1017.28 1017.24 1017.16 1017.16 1017.12 1017.16 1017.24 1017.24 1017.44 1017.76 1017.96 1018.32 1018.44 1018.56 1018.76 1019.00 1019.28 1019.56 1019.72 1019.68 1019.84 1020.08 1020.08 1020.20 1020.32 1020.48 1020.44 1020.60 1020.56 1020.52 1020.72 1020.84 1021.16 1021.28 1021.24 1021.44 1021.44 1021.44 1021.56 1021.76 1022.00 1022.16 1022.28 1022.36 1022.44 1022.52 1022.56 1022.60 1022.64 1022.84 1022.96 1023.08 1023.16
1017.40 1017.24 1017.20 1017.24 1017.44 1017.44 1017.28 1017.20 1017.16 1017.24 1017.16 1017.20 1017.20 1017.08 1017.08 1017.24 1017.40 1017.44 1017.52 1017.68 1017.92 1018.08 1018.16 1018.36 1018.52 1018.88 1019.16 1019.40 1019.72 1019.76 1019.84 1019.88 1019.92 1020.12 1020.24 1020.24 1020.20 1020.36 1020.40 1020.44 1020.48 1020.56 1020.84 1020.96 1021.16 1021.20 1021.32 1021.48 1021.48 1021.76 1021.96 1022.08 1022.16 1022.20 1022.24 1022.24 1022.28 1022.48 1022.48 1022.44 1022.48 1022.64 1022.76
1018.00 1018.08 1018.08 1017.56 1017.40 1017.60 1017.68 1017.48 1017.20 1017.16 1017.28 1017.28 1017.20 1017.20 1017.24 1017.32 1017.40 1017.48 1017.56 1017.64 1017.64 1017.96 1018.16 1018.36 1018.48 1018.76 1019.08 1019.28 1019.60 1019.80 1019.92 1019.88 1019.88 1020.00 1020.12 1020.20 1020.16 1020.24 1020.28 1020.36 1020.44 1020.48 1020.52 1020.60 1020.96 1021.08 1021.12 1021.32 1021.40 1021.52 1021.76 1021.80 1021.84 1021.84 1021.92 1021.92 1022.04 1022.16 1022.24 1022.20 1022.24 1022.40 1022.48
1018.44 1018.40 1018.32 1018.36 1017.76 1017.44 1017.56 1017.56 1017.52 1017.40 1017.32 1017.28 1017.28 1017.32 1017.32 1017.44 1017.56 1017.60 1017.72 1017.80 1017.76 1017.80 1018.04 1018.28 1018.52 1018.76 1019.04 1019.20 1019.40 1019.64 1019.80 1019.84 1019.92 1019.88 1019.96 1020.08 1020.12 1020.04 1020.12 1020.24 1020.28 1020.40 1020.52 1020.44 1020.64 1020.84 1020.96 1021.00 1021.24 1021.28 1021.44 1021.52 1021.56 1021.68 1021.72 1021.80 1021.76 1021.88 1021.96 1022.00 1022.04 1022.20 1022.40
1018.24 1018.16 1018.12 1017.92 1017.76 1017.52 1017.88 1017.80 1017.60 1017.60 1017.64 1017.60 1017.52 1017.48 1017.68 1017.68 1017.64 1017.80 1017.92 1018.08 1018.04 1018.04 1018.12 1018.24 1018.48 1018.76 1018.96 1019.16 1019.36 1019.52 1019.64 1019.72 1019.80 1019.96 1020.00 1019.92 1020.00 1020.12 1020.16 1020.16 1020.24 1020.32 1020.32 1020.40 1020.64 1020.72 1020.72 1020.80 1020.92 1020.96 1021.08 1021.20 1021.32 1021.36 1021.40 1021.60 1021.72 1021.72 1021.72 1021.76 1021.84 1021.96 1022.12
1018.52 1018.44 1018.08 1018.04 1018.04 1017.60 1017.56 1017.88 1017.92 1017.84 1017.84 1017.88 1017.92 1018.16 1018.16 1018.08 1018.00 1017.96 1018.08 1018.20 1018.24 1018.24 1018.44 1018.44 1018.60 1018.84 1019.04 1019.20 1019.36 1019.52 1019.52 1019.60 1019.72 1019.84 1019.96 1020.04 1020.04 1020.08 1020.12 1020.16 1020.24 1020.28 1020.40 1020.48 1020.52 1020.40 1020.40 1020.40 1020.52 1020.76 1020.96 1020.96 1021.08 1021.20 1021.20 1021.36 1021.48 1021.44 1021.52 1021.68 1021.76 1021.72 1021.84
1018.88 1018.76 1018.64 1018.52 1018.48 1018.24 1017.80 1017.96 1018.12 1018.28 1018.32 1018.40 1018.44 1018.44 1018.64 1018.72 1018.60 1018.44 1018.48 1018.60 1018.60 1018.60 1018.48 1018.52 1018.92 1019.04 1019.20 1019.36 1019.48 1019.52 1019.56 1019.68 1019.80 1019.92 1019.92 1020.04 1020.16 1020.16 1020.12 1020.04 1020.00 1020.08 1020.28 1020.44 1020.48 1020.48 1020.52 1020.52 1020.56 1020.56 1020.72 1020.88 1020.92 1020.96 1021.04 1021.12 1021.04 1021.16 1021.36 1021.44 1021.48 1021.56 1021.56
1019.04 1019.12 1019.08 1018.96 1018.88 1018.84 1018.52 1018.44 1018.44 1018.52 1018.72 1018.92 1018.92 1018.92 1019.08 1019.28 1019.08 1018.92 1018.80 1018.76 1018.88 1018.88 1018.80 1018.84 1019.24 1019.56 1019.80 1019.72 1019.48 1019.44 1019.52 1019.68 1019.80 1019.80 1020.04 1020.04 1020.04 1020.04 1020.16 1020.16 1020.00 1020.08 1020.24 1020.36 1020.48 1020.60 1020.64 1020.60 1020.64 1020.56 1020.44 1020.56 1020.68 1020.84 1020.80 1020.76 1020.68 1020.96 1021.24 1021.48 1021.64 1021.68 1021.64
1019.32 1019.36 1019.36 1019.44 1019.48 1019.36 1019.12 1018.92 1018.92 1018.96 1019.20 1019.40 1019.52 1019.56 1019.64 1019.76 1019.64 1019.56 1019.60 1019.36 1019.48 1019.44 1019.24 1019.36 1019.60 1019.84 1020.00 1020.04 1019.88 1019.64 1019.60 1019.64 1019.72 1019.88 1020.00 1020.04 1020.04 1020.00 1020.00 1020.00 1020.12 1020.20 1020.24 1020.24 1020.44 1020.60 1020.48 1020.60 1020.64 1020.56 1020.44 1020.36 1020.44 1020.56 1020.56 1020.52 1020.60 1020.92 1021.12 1021.32 1021.52 1021.68 1021.60
1019.44 1019.44 1019.56 1019.64 1019.88 1019.88 1019.64 1019.48 1019.32 1019.32 1019.44 1019.56 1019.72 1019.96 1020.04 1019.88 1019.88 1020.08 1020.08 1019.92 1020.00 1019.80 1019.88 1019.92 1019.96 1020.12 1020.36 1020.52 1020.36 1020.12 1019.92 1019.88 1019.88 1019.96 1020.00 1020.00 1019.88 1019.88 1019.88 1020.00 1020.12 1020.28 1020.32 1020.44 1020.32 1020.36 1020.64 1020.72 1020.60 1020.56 1020.44 1020.40 1020.52 1020.48 1020.32 1020.40 1020.56 1020.96 1021.12 1021.16 1021.32 1021.52 1021.64
1019.48 1019.52 1019.56 1019.68 1019.84 1020.04 1020.12 1019.96 1019.92 1019.80 1019.84 1019.96 1020.08 1020.08 1020.12 1020.04 1020.24 1020.44 1020.40 1020.32 1020.24 1020.24 1020.32 1020.32 1020.56 1020.60 1020.72 1020.64 1020.60 1020.44 1020.32 1020.24 1020.20 1020.36 1020.40 1020.32 1020.20 1020.08 1020.08 1020.16 1020.44 1020.44 1020.32 1020.40 1020.52 1020.72 1020.80 1020.64 1020.72 1020.64 1020.64 1020.56 1020.52 1020.44 1020.28 1020.28 1020.76 1021.00 1021.08 1021.08 1021.12 1021.24 1021.44
1019.84 1019.92 1020.08 1020.08 1020.24 1020.28 1020.32 1020.28 1020.16 1020.16 1020.08 1020.32 1020.44 1020.48 1020.44 1020.72 1020.72 1020.88 1020.96 1020.88 1020.88 1020.84 1020.88 1020.84 1020.84 1020.92 1020.96 1020.92 1020.80 1020.72 1020.64 1020.64 1020.68 1020.80 1020.80 1020.68 1020.52 1020.52 1020.64 1020.72 1020.80 1020.84 1020.80 1020.76 1020.84 1021.00 1021.08 1020.96 1020.88 1020.80 1020.64 1020.48 1020.44 1020.40 1020.28 1020.64 1021.12 1021.00 1020.96 1021.04 1021.08 1021.08 1021.12
1019.76 1019.92 1020.28 1020.36 1020.40 1020.56 1020.60 1020.56 1020.52 1020.44 1020.60 1020.60 1020.64 1020.84 1021.04 1021.32 1021.16 1021.16 1021.44 1021.28 1021.32 1021.48 1021.36 1021.20 1021.28 1021.44 1021.44 1021.44 1021.32 1021.12 1020.92 1020.88 1021.00 1021.08 1021.04 1020.92 1020.88 1020.96 1021.00 1020.92 1020.88 1021.04 1021.04 1021.00 1020.96 1020.92 1020.80 1020.84 1020.80 1020.88 1020.80 1020.64 1020.56 1020.52 1020.40 1020.92 1021.28 1021.16 1021.08 1021.04 1020.92 1020.96 1020.76
1019.44 1019.88 1020.16 1020.40 1020.48 1020.80 1020.84 1020.76 1020.80 1020.84 1020.84 1020.96 1021.08 1021.28 1021.48 1021.52 1021.52 1021.48 1021.56 1021.68 1021.76 1021.84 1021.84 1021.84 1022.00 1022.08 1022.04 1021.92 1021.84 1021.68 1021.40 1021.24 1021.20 1021.20 1021.28 1021.16 1021.12 1021.16 1021.24 1021.36 1021.32 1021.16 1020.96 1021.20 1021.24 1021.24 1021.20 1021.16 1021.08 1020.96 1020.80 1020.76 1020.80 1020.80 1020.72 1020.96 1021.56 1021.44 1021.28 1021.12 1021.04 1020.72 1020.48
1019.60 1019.92 1020.16 1020.40 1020.60 1020.72 1020.88 1020.96 1021.04 1021.12 1021.20 1021.40 1021.56 1021.68 1021.72 1021.68 1021.72 1021.72 1021.84 1022.00 1022.04 1022.12 1022.24 1022.24 1022.44 1022.44 1022.36 1022.40 1022.20 1022.00 1021.84 1021.60 1021.44 1021.36 1021.20 1021.20 1021.24 1021.24 1021.24 1021.36 1021.36 1021.24 1021.00 1021.44 1021.68 1021.68 1021.48 1021.32 1021.32 1021.20 1021.08 1021.08 1021.12 1021.00 1021.24 1021.44 1021.68 1021.60 1021.44 1021.32 1021.16 1020.92 1020.64
1019.84 1020.04 1020.24 1020.36 1020.52 1020.76 1020.96 1021.12 1021.16 1021.28 1021.44 1021.60 1021.88 1021.96 1021.84 1021.84 1021.84 1021.92 1022.16 1022.20 1022.24 1022.28 1022.52 1022.72 1022.72 1022.76 1022.76 1022.68 1022.36 1021.96 1021.68 1021.44 1021.28 1021.20 1021.20 1021.28 1021.40 1021.48 1021.60 1021.60 1021.48 1021.20 1021.12 1021.60 1022.12 1022.24 1021.96 1021.64 1021.60 1021.60 1021.52 1021.40 1021.32 1021.28 1021.28 1021.48 1021.80 1021.80 1021.64 1021.40 1021.24 1020.92 1020.56
1020.28 1020.40 1020.56 1020.56 1020.64 1020.76 1021.00 1021.04 1021.12 1021.32 1021.60 1021.88 1022.12 1021.92 1021.92 1022.00 1022.08 1022.24 1022.40 1022.44 1022.36 1022.48 1022.76 1022.92 1022.84 1022.76 1022.60 1022.44 1022.16 1021.84 1021.60 1021.44 1021.40 1021.40 1021.44 1021.40 1021.32 1021.44 1021.52 1021.48 1021.36 1021.36 1021.68 1022.16 1022.48 1022.48 1022.12 1021.92 1021.92 1022.04 1022.00 1021.80 1021.64 1021.52 1021.44 1021.72 1022.08 1022.16 1022.08 1021.96 1021.64 1021.28 1020.80
1020.16 1020.24 1020.52 1020.68 1020.96 1020.92 1021.08 1021.24 1021.32 1021.60 1021.84 1022.08 1022.08 1021.92 1021.92 1022.00 1022.24 1022.68 1022.80 1022.80 1022.80 1023.04 1023.08 1022.92 1022.84 1022.72 1022.68 1022.52 1022.28 1022.08 1021.88 1021.72 1021.64 1021.64 1021.60 1021.52 1021.56 1021.60 1021.72 1021.76 1021.92 1022.12 1022.40 1022.64 1022.52 1022.32 1022.16 1022.08 1022.08 1022.08 1022.08 1021.92 1021.84 1021.84 1021.80 1021.76 1022.08 1022.40 1022.36 1022.24 1022.00 1021.68 1021.16
1020.28 1020.52 1020.64 1020.84 1021.04 1021.08 1021.28 1021.52 1021.76 1021.88 1022.04 1022.12 1022.08 1022.08 1022.16 1022.32 1022.72 1023.00 1023.12 1023.20 1023.36 1023.36 1023.12 1022.96 1022.84 1022.76 1022.68 1022.68 1022.60 1022.48 1022.36 1022.28 1022.12 1021.92 1021.88 1021.92 1021.88 1022.08 1022.16 1022.16 1022.16 1022.32 1022.44 1022.52 1022.56 1022.60 1022.56 1022.44 1022.28 1022.28 1022.28 1022.28 1022.24 1022.24 1022.28 1022.12 1022.28 1022.36 1022.32 1022.12 1021.96 1021.96 1021.92
1020.64 1020.80 1021.04 1021.20 1021.28 1021.28 1021.32 1021.76 1022.00 1022.24 1022.32 1022.28 1022.28 1022.36 1022.44 1022.60 1023.00 1023.24 1023.36 1023.60 1023.72 1023.44 1023.20 1023.04 1022.92 1022.84 1022.76 1022.80 1022.84 1022.84 1022.84 1022.72 1022.60 1022.52 1022.36 1022.36 1022.32 1022.40 1022.52 1022.44 1022.44 1022.48 1022.48 1022.56 1022.60 1022.56 1022.60 1022.48 1022.40 1022.36 1022.44 1022.52 1022.52 1022.52 1022.52 1022.36 1022.20 1022.20 1022.08 1022.00 1021.96 1022.12 1022.28
1020.76 1020.96 1021.08 1021.08 1021.24 1021.48 1021.60 1022.04 1022.32 1022.48 1022.56 1022.60 1022.60 1022.56 1022.60 1022.72 1023.12 1023.40 1023.60 1023.88 1023.72 1023.56 1023.36 1023.20 1023.08 1023.04 1023.00 1023.00 1023.08 1023.12 1023.04 1022.96 1022.84 1022.80 1022.72 1022.68 1022.60 1022.56 1022.64 1022.64 1022.60 1022.64 1022.64 1022.60 1022.56 1022.64 1022.72 1022.68 1022.56 1022.52 1022.56 1022.56 1022.52 1022.44 1022.32 1022.16 1021.96 1021.96 1021.92 1021.96 1022.08 1022.28 1022.56
1020.96 1021.12 1021.28 1021.52 1021.68 1021.84 1021.88 1022.16 1022.56 1022.72 1022.92 1023.00 1023.00 1022.96 1022.88 1022.88 1023.08 1023.36 1023.68 1023.88 1023.72 1023.68 1023.56 1023.44 1023.32 1023.24 1023.28 1023.28 1023.28 1023.24 1023.16 1023.08 1023.04 1023.08 1023.00 1022.92 1022.80 1022.80 1022.76 1022.76 1022.68 1022.84 1022.76 1022.68 1022.76 1022.76 1022.88 1022.92 1022.84 1022.88 1022.92 1022.88 1022.84 1022.64 1022.40 1022.28 1022.12 1022.20 1022.24 1022.40 1022.64 1022.92 1023.04
1021.28 1021.28 1021.48 1021.76 1022.04 1022.16 1022.28 1022.48 1022.68 1022.88 1023.12 1023.28 1023.24 1023.28 1023.32 1023.32 1023.28 1023.52 1023.76 1023.64 1023.64 1023.64 1023.64 1023.56 1023.48 1023.48 1023.48 1023.40 1023.36 1023.36 1023.16 1023.08 1023.04 1023.12 1023.08 1022.96 1022.84 1022.80 1022.76 1022.76 1022.68 1022.72 1022.76 1022.76 1022.84 1022.92 1023.04 1023.16 1023.12 1023.08 1023.04 1023.04 1022.92 1022.84 1022.64 1022.60 1022.56 1022.68 1022.72 1022.84 1022.96 1023.12 1023.28
1021.48 1021.56 1021.72 1021.96 1022.16 1022.28 1022.48 1022.64 1022.88 1023.08 1023.20 1023.48 1023.48 1023.44 1023.52 1023.64 1023.72 1023.80 1023.80 1023.76 1023.64 1023.64 1023.64 1023.64 1023.72 1023.80 1023.72 1023.64 1023.48 1023.40 1023.36 1023.28 1023.20 1023.20 1023.20 1023.04 1022.84 1022.68 1022.68 1022.68 1022.68 1022.80 1022.84 1022.84 1022.96 1023.08 1023.12 1023.16 1023.28 1023.28 1023.24 1023.24 1023.16 1023.00 1022.88 1022.76 1022.84 1022.96 1023.08 1023.16 1023.12 1023.08 1023.04
1021.60 1021.80 1021.92 1022.04 1022.28 1022.36 1022.52 1022.72 1022.96 1023.24 1023.44 1023.64 1023.68 1023.68 1023.72 1023.80 1023.88 1023.96 1023.92 1023.88 1023.84 1023.80 1023.76 1023.80 1023.88 1023.88 1023.88 1023.80 1023.60 1023.56 1023.56 1023.56 1023.56 1023.44 1023.32 1023.28 1023.12 1023.00 1022.88 1022.80 1022.72 1022.80 1022.96 1023.00 1023.08 1023.16 1023.24 1023.20 1023.32 1023.40 1023.36 1023.36 1023.08 1022.92 1022.84 1022.88 1022.96 1023.20 1023.44 1023.48 1023.44 1023.20 1022.88
1021.68 1021.76 1022.00 1022.24 1022.40 1022.40 1022.56 1022.80 1023.08 1023.36 1023.56 1023.76 1023.80 1023.84 1023.88 1024.00 1024.04 1024.08 1024.12 1024.08 1024.04 1024.00 1023.96 1024.00 1024.04 1024.00 1024.00 1023.92 1023.80 1023.80 1023.68 1023.60 1023.60 1023.52 1023.44 1023.32 1023.24 1023.24 1023.28 1023.28 1023.12 1023.12 1023.08 1023.12 1023.16 1023.24 1023.16 1023.16 1023.28 1023.28 1023.28 1023.16 1023.16 1023.20 1023.08 1023.04 1023.24 1023.60 1024.20 1024.28 1024.44 1024.20 1023.60
1021.76 1021.96 1022.04 1022.08 1022.28 1022.40 1022.64 1022.84 1023.12 1023.40 1023.60 1023.80 1023.84 1023.88 1023.96 1024.08 1024.20 1024.20 1024.12 1024.20 1024.12 1024.04 1024.00 1024.00 1024.04 1024.08 1024.04 1023.92 1023.92 1023.88 1023.80 1023.76 1023.68 1023.68 1023.60 1023.44 1023.44 1023.32 1023.32 1023.52 1023.56 1023.44 1023.40 1023.48 1023.68 1023.76 1023.76 1023.60 1023.32 1023.36 1023.32 1023.28 1023.20 1023.24 1023.32 1023.36 1023.56 1024.04 1024.24 1024.44 1024.48 1024.44 1024.36
1021.48 1021.84 1022.00 1022.12 1022.36 1022.64 1022.76 1023.04 1023.24 1023.40 1023.64 1023.76 1023.80 1023.88 1024.00 1024.12 1024.20 1024.32 1024.36 1024.36 1024.32 1024.20 1024.04 1023.96 1023.92 1023.96 1023.96 1024.00 1024.08 1024.12 1024.04 1023.88 1023.84 1023.84 1023.80 1023.72 1023.68 1023.60 1023.52 1023.32 1023.52 1023.80 1023.84 1023.88 1023.96 1024.00 1024.00 1023.92 1024.04 1024.04 1023.92 1023.68 1023.36 1023.64 1024.04 1024.00 1024.16 1024.28 1024.40 1024.44 1024.44 1024.40 1024.32
1021.20 1021.44 1021.72 1022.04 1022.24 1022.52 1022.80 1023.12 1023.28 1023.40 1023.56 1023.72 1023.80 1023.92 1024.04 1024.16 1024.28 1024.36 1024.36 1024.44 1024.44 1024.36 1024.24 1024.12 1024.00 1024.08 1024.12 1024.20 1024.20 1024.24 1024.20 1024.12 1024.08 1023.92 1023.88 1023.92 1023.92 1023.80 1023.72 1023.64 1023.48 1023.56 1023.76 1023.80 1023.92 1024.00 1023.96 1024.00 1024.20 1024.36 1024.28 1024.20 1024.04 1023.68 1023.68 1024.00 1024.36 1024.52 1024.60 1024.60 1024.52 1024.44 1024.44
Wind_Speed
6 6 8 8 10 11 12 12 13 12 12 12 12 13 13 12 11 10 11 11 12 11 11 11 11 9 11 9 9 8 8 7 6 6 6 6 5 5 6 5 6 5 5 5 5 5 5 4 5 5 4 5 5 5 4 4 4 3 3 3 2 2 3
8 7 7 9 10 11 12 13 12 11 12 12 11 12 11 12 11 12 11 12 12 12 12 11 11 10 10 9 8 9 9 8 7 6 6 4 4 4 5 6 6 6 5 5 5 5 5 5 5 5 5 5 5 5 5 5 4 4 4 3 3 2 3
7 5 5 7 10 11 12 11 11 11 12 11 11 11 12 13 13 13 11 12 12 11 11 11 11 11 10 9 9 10 9 8 8 7 8 7 8 8 6 6 6 5 6 5 4 4 5 6 5 5 5 5 5 5 4 4 4 4 4 3 4 3 3
5 6 4 5 8 8 11 12 13 12 11 12 13 14 14 13 12 11 11 12 13 12 12 12 11 11 10 10 10 9 9 8 8 8 8 7 8 7 6 6 5 5 5 6 5 5 4 5 6 5 5 5 5 4 4 4 4 5 4 4 4 3 3
6 6 4 4 6 7 8 9 11 11 12 13 13 12 11 11 11 11 11 11 12 13 14 14 11 10 8 9 8 8 10 10 8 7 7 7 6 6 6 7 6 6 5 5 5 5 4 5 5 5 5 5 5 5 5 5 5 5 4 4 4 3 4
8 5 5 5 4 6 8 9 10 11 12 13 13 12 11 12 11 13 12 12 12 10 10 10 11 10 10 10 9 8 8 8 7 7 7 7 7 7 7 6 6 6 6 6 5 6 6 5 5 5 5 5 5 5 5 5 5 5 4 4 4 4 4
6 5 5 4 4 4 6 8 8 9 9 9 9 9 9 11 12 12 12 12 12 13 12 12 11 10 9 9 9 9 9 9 8 9 8 8 7 7 6 5 5 5 5 5 6 6 6 6 6 5 5 5 5 5 4 5 4 4 4 4 4 4 4
6 6 5 5 5 5 5 6 7 8 7 7 7 8 10 10 11 11 12 11 12 11 11 11 11 10 10 9 9 10 9 9 8 8 7 8 7 7 6 5 5 5 4 5 6 6 6 6 6 5 5 5 5 5 5 4 5 5 5 5 5 5 4
7 6 6 6 7 6 5 5 5 6 9 10 10 9 10 10 11 12 12 11 11 12 12 12 11 9 9 9 9 11 10 9 9 8 9 9 8 8 8 7 6 5 5 5 5 6 6 6 6 5 6 6 5 5 5 5 5 5 5 5 6 6 6
8 9 8 7 5 5 5 6 6 5 6 7 7 9 10 9 9 10 10 10 9 11 11 11 9 8 8 8 9 10 10 9 9 10 10 10 8 9 8 7 6 6 5 5 5 5 5 5 5 5 6 6 6 6 6 6 6 6 6 6 7 7 7
3 4 7 8 7 6 6 6 7 6 5 6 7 7 8 8 8 8 8 8 9 9 9 9 8 9 9 9 9 9 9 10 10 9 10 9 7 8 8 7 7 6 6 5 5 5 4 5 5 5 5 6 6 6 6 6 6 6 6 6 6 7 7
3 4 2 7 10 7 7 6 6 7 6 5 5 6 7 7 6 6 7 8 7 7 8 7 7 8 8 8 9 8 8 8 7 8 8 7 7 7 6 6 6 6 6 7 6 5 5 5 5 5 6 6 6 6 6 6 6 6 7 7 7 6 7
6 5 3 4 5 8 5 7 7 8 8 7 8 6 6 6 6 6 6 6 6 6 6 6 7 7 7 8 8 8 8 8 7 6 6 5 5 4 4 5 6 6 6 6 6 6 6 6 6 5 6 6 6 6 6 6 6 6 7 7 7 6 7
7 5 4 3 3 9 7 7 8 8 8 8 8 8 7 6 6 6 6 6 5 5 6 5 7 7 7 7 8 7 7 7 6 5 5 4 5 4 4 4 4 5 5 5 6 7 7 7 7 6 6 6 6 6 6 6 6 6 6 6 6 7 7
8 7 6 6 3 5 11 7 6 8 9 10 10 9 8 8 8 7 7 6 5 6 6 6 7 7 6 6 6 5 5 5 5 6 5 4 4 5 5 5 4 4 5 5 6 6 7 7 7 6 6 6 6 6 6 6 6 5 6 6 7 7 8
9 9 10 10 9 7 6 9 9 9 9 10 10 10 9 7 6 6 7 7 7 7 6 6 6 6 5 5 5 5 5 5 5 5 6 5 4 4 4 5 5 5 5 5 6 5 5 5 5 6 6 6 6 6 6 6 5 6 8 8 6 7 7
10 11 12 12 12 10 10 11 12 9 10 10 11 10 9 6 7 7 8 7 6 6 6 7 7 7 3 2 2 4 5 5 5 5 6 5 4 5 4 4 4 5 5 5 5 5 4 5 6 6 6 6 5 6 5 5 5 5 8 9 10 8 7
11 12 12 13 11 9 11 12 14 15 14 12 12 11 9 8 7 8 7 7 8 8 8 8 8 8 6 5 3 3 4 4 5 5 5 5 5 5 5 5 4 5 5 5 6 5 5 5 4 4 4 4 4 5 5 5 2 2 6 8 9 8 8
12 12 13 13 13 11 10 11 12 14 15 13 11 10 10 9 10 9 8 8 7 8 9 9 8 7 7 6 6 6 5 4 5 5 4 3 5 5 6 6 5 5 4 4 4 4 5 5 5 5 4 4 4 4 3 4 6 3 1 5 7 8 8
12 12 12 12 12 12 10 9 9 11 13 12 10 10 10 10 11 9 8 8 8 9 9 9 9 8 7 7 8 7 6 6 7 7 6 5 5 4 3 3 3 2 2 2 3 4 4 5 4 3 3 2 2 2 2 1 8 5 4 3 3 5 7
12 12 11 12 12 12 11 10 10 9 11 11 10 10 10 10 9 9 9 9 10 9 9 9 9 9 8 7 7 8 8 9 8 7 6 6 6 6 6 6 5 5 4 4 3 1 2 3 4 3 4 3 3 2 2 7 10 8 5 5 4 1 6
13 11 10 10 13 12 10 10 9 10 9 8 9 9 9 7 7 10 9 8 9 8 9 10 10 9 9 8 8 7 6 6 6 7 7 6 6 7 7 5 5 5 5 4 3 1 3 3 2 1 1 0 1 2 2 8 11 9 8 5 5 1 3
12 12 11 9 9 9 8 9 10 10 10 10 9 9 8 7 8 9 8 9 8 9 8 8 9 8 7 8 7 6 6 6 6 6 5 4 5 5 6 5 5 5 3 3 2 4 3 2 3 2 0 2 2 1 1 6 9 10 10 8 6 3 1
12 12 11 12 11 11 10 10 10 10 11 11 11 9 7 7 7 8 8 8 7 8 9 9 9 7 7 6 5 5 5 5 5 5 5 5 7 8 6 5 3 4 5 5 4 5 5 6 6 7 7 7 7 6 6 7 10 11 11 10 9 4 2
12 11 11 12 13 13 11 10 11 11 11 11 11 8 8 9 9 9 8 8 8 8 9 8 7 7 5 4 3 4 5 5 5 5 5 6 6 6 7 7 6 6 6 6 4 4 4 6 7 7 7 7 7 9 7 8 9 12 11 11 11 6 3
12 11 11 11 11 11 11 11 12 13 12 12 9 8 9 9 10 10 9 8 8 9 9 7 6 5 4 4 5 5 6 7 7 7 7 6 7 6 6 5 6 7 6 5 3 3 5 6 6 6 6 6 8 7 7 8 7 11 12 13 13 11 4
11 11 12 12 11 10 10 9 10 11 11 8 8 8 9 9 10 9 8 8 9 9 6 5 4 4 5 5 6 7 7 7 7 7 7 6 6 6 6 6 6 5 5 4 3 4 5 6 6 7 6 6 7 7 8 7 7 9 12 12 13 15 11
11 11 10 11 10 10 10 11 11 12 11 9 9 9 9 10 10 8 8 8 8 6 4 4 4 4 5 6 7 7 7 7 6 6 6 5 5 6 6 5 4 4 4 4 4 5 6 5 5 6 6 6 6 6 6 9 11 6 10 13 14 14 15
11 12 11 11 10 10 11 10 10 10 9 8 8 7 8 10 10 9 8 8 6 4 4 4 4 5 6 6 7 6 6 6 7 6 5 5 5 6 6 5 5 4 4 4 5 6 6 6 5 5 5 4 4 4 4 5 7 11 9 12 14 14 13
10 11 10 10 11 11 12 11 9 9 9 7 7 7 7 8 8 8 8 8 4 3 3 4 4 4 5 5 5 5 5 5 6 6 5 5 4 4 5 5 5 5 4 4 5 5 6 5 5 6 6 6 6 5 5 6 7 10 12 10 13 12 11
11 11 11 11 11 10 10 11 11 9 9 7 7 6 6 6 8 8 8 5 4 4 4 4 4 4 4 4 4 4 4 4 5 4 4 3 3 3 4 4 4 5 3 4 5 5 5 5 5 5 5 5 5 4 4 5 7 7 8 9 7 8 8
10 10 11 10 10 10 10 10 10 10 9 8 7 7 6 6 7 8 5 3 4 4 3 4 4 5 5 4 4 4 4 4 5 5 4 4 3 3 2 3 3 4 4 4 4 4 5 4 4 4 5 4 4 4 3 4 5 5 4 3 3 3 3
10 10 11 11 10 11 10 10 9 9 9 8 6 6 6 7 6 6 4 4 3 3 3 4 4 4 4 4 4 4 4 5 4 3 4 4 3 3 3 2 3 3 3 3 4 4 4 4 4 3 4 3 3 2 2 2 3 3 3 3 2 2 2
10 8 7 9 9 9 9 9 9 9 8 7 5 5 6 6 6 5 4 4 3 3 3 4 4 4 5 4 3 4 4 4 6 5 4 4 4 3 3 3 2 2 3 3 3 3 3 3 4 3 3 3 3 3 3 3 4 4 3 4 4 3 3
8 9 9 9 8 9 8 9 9 9 9 7 6 6 6 6 5 4 4 3 3 3 4 5 5 5 5 4 4 4 4 4 4 4 4 4 4 5 4 4 3 3 4 5 5 4 3 3 2 2 2 2 3 3 3 4 4 3 3 3 4 3 4
8 9 9 8 7 8 8 8 9 9 9 7 6 6 6 6 5 4 4 3 3 3 5 5 5 5 4 3 3 3 3 3 3 4 4 4 4 4 5 6 5 5 4 5 7 8 6 4 3 3 3 2 2 3 3 3 3 4 5 5 4 5 4
12 9 9 9 9 8 9 8 9 9 9 7 7 6 6 5 5 4 3 3 3 3 4 4 5 4 4 3 3 3 3 2 3 3 3 3 4 4 3 2 5 5 5 3 2 3 3 3 3 4 5 4 2 4 6 6 5 6 6 6 5 6 6
10 10 10 9 9 10 10 10 10 10 10 8 7 7 6 6 5 4 4 3 3 3 4 4 4 4 4 3 3 3 3 3 3 2 3 3 3 3 3 2 1 3 3 4 5 4 5 5 5 3 2 3 4 3 2 4 5 5 4 4 4 5 6
Wind_Direction
171 181 193 189 188 190 190 189 187 184 184 185 184 182 178 175 173 171 176 179 184 176 177 179 183 183 185 186 189 186 191 186 188 199 203 209 212 201 200 202 201 203 203 202 200 205 205 208 212 217 215 214 215 210 213 211 214 217 218 225 234 250 261
176 182 182 190 193 192 192 189 186 187 187 186 183 180 178 174 172 179 182 181 184 181 179 183 184 187 188 187 185 186 187 187 188 191 199 201 204 209 211 203 207 203 207 213 201 198 198 202 211 214 223 221 223 220 217 214 218 221 220 215 228 232 240
169 169 176 187 194 193 190 187 188 191 188 185 183 180 182 178 178 179 178 181 183 183 182 185 188 189 191 188 188 191 190 186 185 188 195 201 203 209 205 209 212 212 214 212 214 202 199 200 199 212 221 229 228 220 224 221 221 224 224 224 230 231 241
153 167 169 184 198 196 189 188 188 192 192 189 188 188 185 179 175 174 178 184 183 182 185 189 191 194 193 190 193 192 193 186 188 193 200 199 194 194 193 198 208 214 207 216 214 216 201 199 199 203 208 222 228 230 226 230 226 220 222 220 233 238 251
156 145 147 164 183 189 192 190 190 191 193 193 192 189 186 175 173 173 177 184 191 192 191 189 190 194 195 195 196 196 197 190 186 195 198 196 192 187 193 199 197 208 212 212 205 204 204 206 206 205 205 211 223 219 228 229 233 230 229 225 238 236 245
161 154 160 157 166 184 190 193 197 194 193 194 190 184 177 174 178 181 181 180 188 190 190 191 193 188 194 197 201 196 192 188 183 188 194 189 188 192 195 198 197 203 200 206 199 207 203 208 211 209 214 213 218 224 226 226 229 231 229 236 251 255 252
155 155 158 154 157 160 176 184 189 192 197 201 191 179 173 175 179 179 180 181 183 183 185 191 196 195 195 194 199 194 193 193 189 190 192 194 188 197 193 196 201 202 211 188 201 198 199 203 205 206 212 222 221 228 225 229 234 230 231 234 239 242 251
158 164 166 157 152 155 160 164 172 178 186 190 181 177 182 184 178 175 182 183 180 177 182 189 195 195 190 191 192 197 198 199 193 193 191 195 190 203 195 197 197 201 197 206 200 200 203 204 205 203 205 211 215 221 228 227 228 236 232 234 238 245 239
178 169 159 167 162 163 158 156 158 167 175 181 186 187 188 182 185 186 187 180 179 178 184 188 189 188 183 186 190 192 194 194 194 195 199 206 204 211 209 201 201 190 205 218 207 200 210 204 208 198 201 210 210 212 220 221 231 234 237 241 242 247 252
187 182 177 168 148 168 164 155 143 149 165 173 175 178 185 184 188 190 187 182 180 186 184 185 180 179 180 186 194 196 191 191 195 199 202 208 211 215 218 213 200 190 206 218 226 211 208 215 214 203 201 211 208 210 218 217 224 230 231 233 239 243 242
106 192 193 189 171 168 161 157 155 149 157 170 172 176 176 174 179 181 181 174 180 185 180 180 172 173 180 184 188 196 199 197 196 198 204 210 213 216 219 218 214 198 203 213 225 231 225 212 217 215 211 220 216 216 215 220 223 226 235 236 236 238 245
69 59 351 219 192 174 160 159 153 153 159 150 143 150 159 164 165 173 176 182 184 177 174 174 170 174 175 178 184 189 199 205 205 204 206 211 215 214 218 224 226 216 204 211 215 219 235 237 231 226 226 230 233 229 224 222 222 223 233 240 239 237 243
64 49 42 5 241 174 152 152 145 143 144 149 143 134 139 141 139 153 159 164 163 161 160 156 163 170 174 176 184 184 189 194 199 199 196 196 215 222 217 222 227 229 227 215 217 217 228 231 236 234 244 244 245 246 238 230 228 223 226 234 238 239 240
87 90 71 87 189 163 143 134 130 127 120 116 114 113 109 116 131 136 143 145 149 139 143 159 164 164 177 183 190 192 189 193 187 173 172 177 173 191 209 223 233 236 234 228 224 228 225 231 232 233 238 245 250 249 246 242 240 232 230 233 240 240 240
89 83 83 75 82 154 145 144 117 105 107 95 79 75 90 109 118 124 121 119 126 142 140 148 164 163 167 175 179 178 177 174 179 185 187 172 169 173 177 189 203 214 229 228 234 234 231 229 232 234 240 243 242 250 251 251 246 240 231 229 233 239 248
83 67 60 53 36 19 81 90 97 87 74 76 76 81 78 73 81 106 115 116 120 120 125 135 132 148 159 166 166 163 160 159 169 183 192 187 181 174 168 177 185 195 201 213 225 227 228 234 233 235 235 237 235 237 243 244 246 227 222 232 245 245 253
85 75 70 63 46 38 64 78 79 74 72 71 70 66 61 45 58 74 85 97 96 93 89 92 93 91 80 96 156 171 167 167 175 185 193 183 181 186 192 188 189 182 183 194 205 214 202 217 222 228 229 228 233 237 240 246 246 219 213 221 235 254 262
95 89 82 71 53 46 59 72 78 81 83 80 76 69 64 59 57 63 56 74 73 72 77 77 78 80 80 89 116 133 156 173 166 173 182 194 194 191 194 196 199 200 194 198 197 196 216 216 205 206 213 210 215 226 240 254 254 216 220 221 222 224 249
108 103 97 94 84 64 52 63 73 80 81 77 71 69 64 63 60 47 42 57 63 74 71 68 71 85 81 69 74 89 94 107 120 123 135 164 178 179 181 192 193 198 197 197 206 205 209 209 206 197 200 194 191 199 208 240 84 50 294 246 230 219 229
111 108 104 98 95 88 79 76 66 71 77 75 73 71 69 64 63 51 46 50 57 63 65 70 65 59 56 53 53 58 69 77 84 84 84 89 94 94 114 141 132 108 117 143 183 214 224 223 217 204 202 212 204 193 169 153 68 41 38 336 263 223 211
114 112 109 108 104 101 93 84 84 78 70 70 72 70 69 64 66 63 55 52 58 55 59 57 59 54 48 47 40 52 59 65 61 62 54 68 80 77 74 77 83 86 84 82 90 118 253 256 238 242 242 233 243 218 176 73 37 43 46 35 343 292 207
123 114 107 110 115 114 113 110 99 91 83 80 74 73 72 69 70 72 65 59 61 53 55 60 55 45 42 33 34 43 43 57 67 66 64 65 62 70 72 73 79 87 87 86 82 144 207 194 213 206 203 221 275 239 197 71 41 39 37 27 39 241 242
122 118 112 104 99 96 89 97 99 94 89 83 81 79 76 78 76 76 69 61 58 61 51 52 53 41 33 36 18 22 36 45 57 68 55 44 61 64 59 53 52 52 57 100 147 165 141 116 99 100 94 79 61 77 254 67 33 32 34 33 6 293 255
112 114 112 110 109 108 104 100 98 93 91 90 84 82 84 80 72 70 67 61 58 62 56 53 54 48 39 30 16 21 26 37 56 57 50 50 58 62 67 78 81 73 62 57 53 51 63 82 85 71 67 69 67 60 72 61 41 38 38 30 17 338 336
117 116 117 119 119 113 107 101 100 98 91 86 83 79 82 77 73 70 64 57 56 55 52 48 45 40 31 5 10 23 21 28 40 52 57 60 53 57 68 65 62 68 68 68 44 38 52 71 74 68 57 56 64 63 66 66 50 38 37 36 26 7 360
124 119 113 110 104 106 107 108 101 93 89 86 86 88 83 81 76 68 62 56 53 52 46 35 28 23 17 8 21 31 35 34 37 41 38 46 55 53 52 49 56 59 67 75 88 85 75 74 71 71 61 52 56 57 56 69 59 37 28 24 21 12 5
120 120 120 115 110 105 94 86 87 90 92 90 91 90 85 82 77 69 64 61 57 50 39 28 22 27 27 27 32 31 34 39 40 54 60 53 57 60 61 56 63 66 73 73 62 69 70 72 72 68 60 48 46 48 46 58 75 51 39 32 28 22 11
119 108 103 106 109 107 102 98 98 97 92 89 91 89 87 86 83 78 69 62 54 42 26 30 32 33 42 43 42 39 37 37 37 52 64 59 68 77 72 70 80 91 96 93 81 74 70 66 68 68 64 57 49 42 42 55 59 54 55 44 38 36 31
129 126 122 117 108 104 105 99 94 89 89 89 87 87 91 91 89 84 75 66 46 15 17 22 32 35 40 43 43 40 37 36 41 42 41 55 65 77 80 78 79 76 76 84 81 77 75 68 68 70 67 69 63 55 48 42 54 44 48 49 44 38 36
123 120 119 115 112 111 105 101 97 92 84 78 73 72 74 84 88 85 79 68 40 29 34 36 41 45 49 49 45 42 40 40 49 47 44 40 49 70 79 81 84 79 72 70 71 71 65 58 56 53 49 45 42 39 36 40 45 43 40 42 42 37 33
134 130 125 122 120 116 114 114 111 105 95 85 79 69 68 71 80 76 72 66 58 43 38 38 45 54 58 53 47 43 41 51 53 47 45 43 43 66 80 85 82 80 70 77 75 71 68 61 56 57 54 44 41 36 35 40 51 52 41 39 59 52 31
127 127 124 122 123 122 118 114 112 109 102 91 87 85 78 73 74 77 65 52 49 55 54 55 52 51 42 41 43 34 30 54 66 49 33 32 38 55 57 72 78 79 75 75 76 74 75 67 56 51 48 48 38 36 41 61 66 70 58 42 38 79 53
136 139 139 136 134 129 125 125 121 117 112 105 93 88 84 81 79 80 73 50 39 52 60 71 64 57 52 48 45 44 38 42 44 47 40 26 32 47 53 59 77 79 84 79 72 71 69 68 61 54 45 41 33 26 41 60 76 77 71 34 25 29 25
140 137 133 132 136 133 131 132 129 127 123 118 112 103 96 89 81 75 70 68 56 63 77 78 67 76 74 70 64 56 45 49 39 41 56 47 38 36 41 39 39 61 57 52 63 72 71 64 56 42 36 31 21 23 33 63 61 51 29 20 6 358 15
147 146 141 143 144 146 142 138 134 136 134 130 127 117 105 97 90 81 75 62 64 89 100 94 91 93 90 86 79 66 59 54 45 40 41 51 62 64 40 21 30 39 66 50 23 9 27 61 63 48 36 13 12 4 26 37 51 49 29 16 17 355 5
159 155 155 150 149 150 141 142 142 145 141 138 136 127 116 107 96 85 72 66 57 73 108 114 114 110 101 93 81 79 77 77 67 47 34 37 36 52 81 85 67 35 36 65 45 42 26 356 30 20 8 15 27 14 358 30 47 43 42 38 13 346 319
161 167 162 158 153 156 154 153 155 150 147 145 142 129 122 115 108 97 80 66 61 65 97 110 110 109 111 97 76 61 70 75 73 69 68 53 38 26 34 94 103 87 84 71 53 52 58 64 36 3 329 331 58 78 65 70 68 48 32 14 355 337 319
171 167 161 163 165 163 162 163 166 163 156 151 144 134 129 121 113 106 101 91 75 66 84 93 104 107 97 87 83 78 67 60 54 57 60 61 52 45 15 6 60 127 98 92 83 73 68 80 87 92 74 15 1 19 127 113 84 46 23 354 345 322 317